EUTELSAT 36D

Last updated on Tue Jul 08 2025 00:02:49 GMT+0000 (Coordinated Universal Time)

1 59346U 24059A 25188.57062550 .00000172 00000+0 00000+0 0 9999 2 59346 0.0156 343.6941 0000510 155.5303 27.8250 1.00271048 4695
UTC large
Height (km)
Speed (km/s)
/
Latitude / Longitude
Inclination (degrees)
Orbital Period (minutes)
Azimuth
Elevation
Range (km)
Doppler Factor

Next 0 passes for location: London (51.5072 / 0.1276)

Sorry there are no passes over London.